Weather History for Ozark, AL

Change the Weather History Date:

Monday, July 15, 2013

  Actual Average Record
Temperature  
Mean Temperature 80 °F -  
Max Temperature 89 °F 88 °F 102 °F (2000)
Min Temperature 72 °F 69 °F 68 °F (2003)
Cooling Degree Days 14    
Growing Degree Days 30 (Base 50)    
Moisture  
Dew Point 72 °F    
Average Humidity 86    
Maximum Humidity 100    
Minimum Humidity 57    
Precipitation  
Precipitation 0.04 in - - ()
Sea Level Pressure  
Sea Level Pressure 30.15 in    
Wind  
Wind Speed 7 mph (ENE)    
Max Wind Speed 17 mph    
Max Gust Speed 23 mph    
Visibility 10 miles    
Events Rain , Thunderstorm    
Averages and records for this station are not official NWS values.
T = Trace of Precipitation, MM = Missing Value Source: NWS Daily Summary

Daily Weather History Graph

Daily Weather History Graph

Search for Another Location

Airport:

Trip Planner

Search our weather history database for the weather conditions in past years. The results will help you decide how hot, cold, wet, or windy it might be!

Date:

Astronomy

Jul. 15, 2013 Rise Set
Actual Time 5:49 AM CDT 7:48 PM CDT
Civil Twilight 5:21 AM CDT 8:15 PM CDT
Nautical Twilight 4:48 AM CDT 8:48 PM CDT
Astronomical Twilight 4:13 AM CDT 9:23 PM CDT
Moon 12:36 PM CDT (7/15) No Moon Set
Length of Visible Light 14h 53m
Length of Day
13h 58m
Waxing Crescent, 45% of the Moon is Illuminated
Jul 15
Waxing Crescent
Jul 15
First Quarter
Jul 22
Full
Jul 29
Last Quarter
Aug 6
New

Hourly Weather History & Observations

Time (CDT) Temp. Heat Index Dew Point Humidity Pressure Visibility Wind Dir Wind Speed Gust Speed Precip Events Conditions
12:58 AM 74.1 °F - 72.3 °F 94% 30.10 in 10.0 mi ENE 3.5 mph - N/A   Partly Cloudy
1:58 AM 74.1 °F - 72.7 °F 95% 30.09 in 10.0 mi East 8.1 mph - N/A   Clear
2:55 AM 73.4 °F - 71.6 °F 94% 30.10 in 10.0 mi East 5.8 mph - N/A   Partly Cloudy
3:55 AM 73.4 °F - 71.6 °F 94% 30.11 in 10.0 mi East 6.9 mph - N/A   Clear
4:58 AM 72.5 °F - 71.1 °F 95% 30.12 in 10.0 mi East 4.6 mph - N/A   Partly Cloudy
5:13 AM 73.4 °F - 71.6 °F 94% 30.13 in 10.0 mi ENE 3.5 mph - N/A   Mostly Cloudy
5:28 AM 73.4 °F - 71.6 °F 94% 30.13 in 10.0 mi ENE 5.8 mph - N/A   Mostly Cloudy
5:48 AM 73.4 °F - 71.6 °F 94% 30.14 in 10.0 mi ENE 5.8 mph - N/A   Mostly Cloudy
5:58 AM 72.7 °F - 71.8 °F 97% 30.14 in 10.0 mi ENE 5.8 mph - N/A   Mostly Cloudy
6:13 AM 73.4 °F - 71.6 °F 94% 30.15 in 10.0 mi ENE 5.8 mph - N/A   Overcast
6:58 AM 73.9 °F - 72.3 °F 95% 30.16 in 10.0 mi East 6.9 mph - N/A   Overcast
7:43 AM 75.2 °F - 71.6 °F 89% 30.17 in 10.0 mi ENE 10.4 mph - N/A   Mostly Cloudy
7:58 AM 75.6 °F - 71.1 °F 86% 30.18 in 10.0 mi East 10.4 mph - N/A   Mostly Cloudy
8:23 AM 75.2 °F - 71.6 °F 89% 30.18 in 10.0 mi ENE 11.5 mph - N/A   Overcast
8:58 AM 76.3 °F - 70.9 °F 83% 30.19 in 10.0 mi East 8.1 mph - N/A   Overcast
9:58 AM 77.5 °F - 70.2 °F 78% 30.20 in 10.0 mi East 9.2 mph - N/A   Mostly Cloudy
10:43 AM 78.8 °F - 69.8 °F 74% 30.20 in 10.0 mi East 9.2 mph - N/A   Mostly Cloudy
10:58 AM 79.9 °F - 70.5 °F 73% 30.19 in 10.0 mi ENE 9.2 mph - N/A   Mostly Cloudy
11:58 AM 82.8 °F 87.4 °F 71.1 °F 68% 30.19 in 10.0 mi Variable 6.9 mph - N/A   Mostly Cloudy
12:58 PM 84.4 °F 89.0 °F 70.7 °F 63% 30.17 in 10.0 mi East 9.2 mph - N/A   Mostly Cloudy
2:55 PM 86.0 °F 90.4 °F 69.8 °F 58% 30.12 in 10.0 mi ENE 10.4 mph - N/A   Unknown
3:58 PM 87.1 °F 92.0 °F 70.3 °F 57% 30.10 in 10.0 mi Variable 6.9 mph - N/A   Partly Cloudy
4:58 PM 86.9 °F 92.5 °F 70.9 °F 59% 30.10 in 10.0 mi ENE 4.6 mph - N/A   Scattered Clouds
5:07 PM 86.0 °F 91.8 °F 71.6 °F 62% 30.10 in 10.0 mi East 4.6 mph - N/A Thunderstorm Thunderstorm
5:22 PM 87.8 °F 93.8 °F 71.6 °F 58% 30.10 in 10.0 mi NE 8.1 mph - N/A Thunderstorm Partly Cloudy
5:24 PM 87.8 °F 93.8 °F 71.6 °F 58% 30.10 in 10.0 mi ENE 8.1 mph - N/A Thunderstorm Thunderstorm
5:51 PM 78.8 °F - 71.6 °F 78% 30.12 in 10.0 mi NE 17.3 mph - N/A Rain , Thunderstorm Light Thunderstorms and Rain
5:52 PM 78.8 °F - 71.6 °F 78% 30.12 in 10.0 mi NE 17.3 mph - N/A   Light Drizzle
5:58 PM 77.7 °F - 71.2 °F 80% 30.13 in 4.0 mi ENE 12.7 mph 23.0 mph 0.01 in Rain , Thunderstorm Light Thunderstorms and Rain
6:13 PM 73.4 °F - 71.6 °F 94% 30.14 in 4.0 mi NNE 2.3 mph - N/A Rain , Thunderstorm Thunderstorms and Rain
6:28 PM 73.4 °F - 71.6 °F 94% 30.14 in 10.0 mi Variable 2.3 mph - N/A Thunderstorm Light Drizzle
6:29 PM 73.4 °F - 71.6 °F 94% 30.14 in 10.0 mi Variable 2.3 mph - N/A Thunderstorm Scattered Clouds
6:58 PM 74.7 °F - 71.4 °F 90% 30.14 in 10.0 mi North 4.6 mph - 0.03 in   Clear
7:33 PM 73.4 °F - 71.6 °F 94% 30.14 in 10.0 mi North 5.8 mph - N/A   Light Drizzle
7:34 PM 73.4 °F - 71.6 °F 94% 30.14 in 10.0 mi North 6.9 mph - N/A   Clear
7:58 PM 73.6 °F - 71.2 °F 92% 30.14 in 10.0 mi NNE 9.2 mph - 0.00 in   Clear
8:58 PM 73.2 °F - 72.1 °F 96% 30.16 in 10.0 mi NE 9.2 mph - N/A   Clear
9:58 PM 73.2 °F - 72.3 °F 97% 30.16 in 10.0 mi NE 8.1 mph - N/A   Clear
10:58 PM 73.2 °F - 72.7 °F 98% 30.18 in 10.0 mi NNE 6.9 mph - N/A   Partly Cloudy
11:08 PM 73.4 °F - 73.4 °F 100% 30.18 in 10.0 mi NE 8.1 mph - N/A   Mostly Cloudy
11:13 PM 73.4 °F - 73.4 °F 100% 30.18 in 10.0 mi NE 9.2 mph - N/A   Mostly Cloudy
11:30 PM 73.4 °F - 73.4 °F 100% 30.18 in 10.0 mi NE 9.2 mph - N/A   Overcast
11:45 PM 73.4 °F - 73.4 °F 100% 30.18 in 10.0 mi NE 9.2 mph - N/A   Overcast
11:58 PM 73.6 °F - 73.0 °F 98% 30.18 in 10.0 mi NE 9.2 mph - N/A   Overcast